Location: Krasnoyarskiy Pitomnik
(51.1333°N, 71.6167°E)
Time: 22:13:52
(UTC+00:00)

Vanguard 1 - Pass Details

Date: 22 April 2024
Orbit: 651 x 3826 km, 34.2° (Epoch: 18 May)

Event Time Altitude Azimuth Distance (km) Brightness Sun altitude
Exits shadow 23:15:58 - 228° (SW) 7,273 13.8 -7.3°
Reaches altitude 10° 23:18:14 10° 225° (SW) 6,868 13.7 -7.0°
Maximum altitude 23:37:07 38° 168° (SSE) 4,055 13.1 -4.4°
Drops below altitude 10° 23:49:52 10° 107° (ESE) 4,724 14.4 -2.5°
Sets 23:53:10 0° 99° (E) 5,348 15.0 -2.1°
